NORTHERN QUEENS  -  Heat Advisory Heat Advisory     Air Quality Alert Air Quality Alert        SOUTHERN QUEENS  -  Heat Advisory Heat Advisory     Air Quality Alert Air Quality Alert      

Active alerts

Northern Queens
  Details for Northern Queens Heat Advisory  +1 additional alert
Southern Queens
  Details for Southern Queens Heat Advisory  +1 additional alert


WXM80 ListenWXM80 Stop

You find our weather info also at:

UK Metoffice

WeatherCloud

Weather Underground

Northeastern Weather Network

AWEKAS

Citizen Weather Observer Program (CWOP)

HAMweather, WeatherForYou, PWS Weather


Weather Underground History page Text

Daily Summary for January 4, 2018 Units:  Metric    English   Both
« Previous Day
Next Day »
Daily Weekly Monthly Yearly Custom
  High: Low: Average:
Temperature: -1.2 °C -6.7 °C -3.6 °C
Dew Point: -3.2 °C -7.8 °C -4.8 °C
Humidity: 96 % 70 % 92 %
Wind Speed: 36.7 km/h 3.7 km/h 17.4 km/h
Wind Gust: 53.8 km/h - -
Wind:- - South
Pressure: 1016.1 hPa 979.6 hPa -
Precipitation: 13.72 mm    
Historical Graphs
 
 
Tabular Data for January 4, 2018
Time Temperature Dew Point Pressure Wind Wind Speed Wind Gust Humidity Rainfall Rate (Hourly)
00:00 -1.9 °C -4.6 °C 1016.1 hPa NE 3.7 km/h 7.4 km/h 82 % 0 mm
00:05 -1.8 °C -4.7 °C 1016.1 hPa NNE 4.2 km/h 8 km/h 81 % 0 mm
00:06 -1.8 °C -4.7 °C 1016.1 hPa ENE 5.8 km/h 7.4 km/h 81 % 0 mm
00:11 -1.7 °C -4.5 °C 1016.1 hPa NNE 4.5 km/h 13 km/h 81 % 0 mm
00:12 -1.6 °C -4.4 °C 1015.8 hPa NNE 5.1 km/h 13 km/h 81 % 0 mm
00:17 -1.6 °C -4.6 °C 1015.8 hPa NNE 4.2 km/h 9.7 km/h 80 % 0 mm
00:19 -1.5 °C -4.5 °C 1015.8 hPa NNE 6 km/h 13 km/h 80 % 0 mm
00:24 -1.4 °C -4.4 °C 1015.5 hPa NE 6.8 km/h 12.9 km/h 80 % 0 mm
00:29 -1.3 °C -4.5 °C 1015.1 hPa NE 5.3 km/h 14.8 km/h 79 % 0 mm
00:35 -1.3 °C -4.4 °C 1006.7 hPa NNE 6.4 km/h 11.1 km/h 79 % 0 mm
00:37 -1.3 °C -4.4 °C 1014.8 hPa NNE 5 km/h 11.1 km/h 79 % 0 mm
00:41 -1.2 °C -4.4 °C 1014.8 hPa NE 6.4 km/h 9.3 km/h 79 % 0 mm
00:42 -1.2 °C -4.4 °C 1014.8 hPa NNE 10 km/h 16.7 km/h 79 % 0 mm
00:47 -1.2 °C -4.4 °C 1014.4 hPa NNE 6.1 km/h 13 km/h 79 % 0 mm
00:53 -1.2 °C -4.5 °C 1014.4 hPa ENE 8.5 km/h 13 km/h 78 % 0 mm
00:56 -1.2 °C -4.5 °C 1014.1 hPa NE 8 km/h 14.5 km/h 78 % 0 mm
00:58 -1.2 °C -4.5 °C 1014.1 hPa NNE 7.9 km/h 14.8 km/h 78 % 0 mm
01:01 -1.2 °C -4.5 °C 1014.1 hPa NE 10.3 km/h 13 km/h 78 % 0 mm
01:04 -1.2 °C -4.5 °C 1014.1 hPa North 8.2 km/h 13 km/h 78 % 0 mm
01:07 -1.2 °C -4.7 °C 1014.1 hPa NNE 10 km/h 14.8 km/h 77 % 0 mm
01:12 -1.2 °C -4.7 °C 1013.8 hPa NNE 9.3 km/h 19.3 km/h 77 % 0 mm
01:18 -1.3 °C -4.8 °C 1013.8 hPa NNE 10.8 km/h 20.4 km/h 77 % 0 mm
01:19 -1.3 °C -4.8 °C 1013.8 hPa NE 9.2 km/h 19.3 km/h 77 % 0 mm
01:24 -1.3 °C -4.8 °C 1013.4 hPa NNE 9.3 km/h 18.5 km/h 77 % 0 mm
01:26 -1.3 °C -4.8 °C 1013.4 hPa North 6.8 km/h 13 km/h 77 % 0 mm
01:28 -1.2 °C -4.7 °C 1005 hPa NNE 8.9 km/h 13 km/h 77 % 0 mm
01:32 -1.2 °C -4.7 °C 1013.1 hPa NE 8 km/h 8 km/h 77 % 0 mm
01:34 -1.3 °C -4.8 °C 1005 hPa NE 8 km/h 8 km/h 77 % 0 mm
01:39 -1.3 °C -4.8 °C 1013.1 hPa NNE 16.7 km/h 20.4 km/h 77 % 0 mm
01:44 -1.3 °C -5 °C 1013.1 hPa NNE 14.8 km/h 18.5 km/h 76 % 0 mm
01:45 -1.3 °C -5 °C 1013.1 hPa NE 12.7 km/h 18.5 km/h 76 % 0 mm
01:46 -1.3 °C -5 °C 1004.6 hPa NNE 12.9 km/h 19.3 km/h 76 % 0 mm
01:47 -1.3 °C -5 °C 1004.6 hPa NNE 15.1 km/h 22.2 km/h 76 % 0 mm
01:48 -1.3 °C -5 °C 1013.1 hPa NNE 12.6 km/h 18.5 km/h 76 % 0 mm
01:53 -1.4 °C -5.2 °C 1012.8 hPa ENE 14.3 km/h 24.1 km/h 75 % 0 mm
01:54 -1.3 °C -5.2 °C 1012.8 hPa North 14.8 km/h 24.1 km/h 75 % 0 mm
01:59 -1.4 °C -5.4 °C 1012.8 hPa NNE 10.8 km/h 18.5 km/h 74 % 0 mm
02:00 -1.4 °C -5.4 °C 1012.8 hPa NNE 10.8 km/h 18.5 km/h 74 % 0 mm
02:05 -1.4 °C -5.6 °C 1012.4 hPa North 13.2 km/h 22.2 km/h 73 % 0 mm
02:06 -1.4 °C -5.6 °C 1012.4 hPa NE 12.6 km/h 22.2 km/h 73 % 0 mm
02:11 -1.4 °C -5.6 °C 1012.1 hPa NE 10.1 km/h 14.5 km/h 73 % 0 mm
02:14 -1.4 °C -5.6 °C 1003.6 hPa North 10.9 km/h 18.5 km/h 73 % 0 mm
02:15 -1.4 °C -5.6 °C 1012.1 hPa NE 8.9 km/h 18.5 km/h 73 % 0 mm
02:20 -1.4 °C -5.8 °C 1011.7 hPa NNE 14.8 km/h 24.1 km/h 72 % 0 mm
02:21 -1.4 °C -5.9 °C 1011.7 hPa NE 13.8 km/h 20.4 km/h 71 % 0 mm
02:25 -1.3 °C -6.1 °C 1011.7 hPa NNE 10.6 km/h 18.5 km/h 70 % 0 mm
02:31 -1.3 °C -5.9 °C 1011.4 hPa NNE 15.3 km/h 27.4 km/h 71 % 0 mm
02:35 -1.3 °C -5.7 °C 1011.4 hPa North 12.4 km/h 18.5 km/h 72 % 0 mm
02:39 -1.3 °C -5.6 °C 1003.3 hPa NNE 10.3 km/h 29.6 km/h 73 % 0 mm
02:45 -1.4 °C -5.4 °C 1011.1 hPa NNE 11.1 km/h 18.5 km/h 74 % 0 mm
02:47 -1.4 °C -5.3 °C 1011.1 hPa NNE 17.9 km/h 22.5 km/h 75 % 0 mm
02:52 -1.5 °C -5.2 °C 1010.7 hPa NNE 12.2 km/h 27.8 km/h 76 % 0 mm
02:55 -1.6 °C -5.1 °C 1010.7 hPa NNE 14.8 km/h 25.7 km/h 77 % 0 mm
03:00 -1.7 °C -5 °C 1010.4 hPa NNE 18.3 km/h 25.9 km/h 78 % 0 mm
03:05 -1.8 °C -4.8 °C 1001.9 hPa NE 11.9 km/h 25.9 km/h 80 % 0 mm
03:09 -2 °C -4.7 °C 1010 hPa NNE 15 km/h 22.2 km/h 82 % 0 mm
03:11 -2 °C -4.7 °C 1010 hPa North 14.6 km/h 20.4 km/h 82 % 0 mm
03:13 -2.1 °C -4.6 °C 1001.2 hPa NNE 15.6 km/h 22.2 km/h 83 % 0 mm
03:18 -2.2 °C -4.4 °C 1009.7 hPa NNE 12.2 km/h 20.9 km/h 85 % 0 mm
03:20 -2.3 °C -4.4 °C 1009.4 hPa NNE 16.9 km/h 25.9 km/h 85 % 0 mm
03:25 -2.4 °C -4.4 °C 1009.4 hPa NE 18.2 km/h 27.8 km/h 86 % 0 mm
03:30 -2.6 °C -4.4 °C 1009 hPa NNE 17.2 km/h 24.1 km/h 87 % 0 mm
03:31 -2.6 °C -4.4 °C 1009 hPa NNE 19.8 km/h 29 km/h 87 % 0 mm
03:36 -2.7 °C -4.6 °C 1008.7 hPa NNE 18 km/h 31.5 km/h 87 % 0 mm
03:43 -2.8 °C -4.6 °C 1008.4 hPa North 16.7 km/h 29.6 km/h 88 % 0 mm
03:48 -2.9 °C -4.7 °C 1007.7 hPa NE 15.4 km/h 27.8 km/h 88 % 0 mm
03:51 -2.9 °C -4.5 °C 1007.7 hPa NNE 12.9 km/h 18.5 km/h 89 % 0 mm
03:56 -3.1 °C -4.7 °C 1007.7 hPa North 16.9 km/h 29.6 km/h 89 % 0 mm
03:59 -3.2 °C -4.7 °C 1007.7 hPa North 18.2 km/h 29.6 km/h 89 % 0 mm
04:01 -3.2 °C -4.8 °C 1007.3 hPa NNE 17.2 km/h 24.1 km/h 89 % 0 mm
04:06 -3.3 °C -4.7 °C 1007.3 hPa NNE 15.1 km/h 24.1 km/h 90 % 0 mm
04:10 -3.4 °C -4.8 °C 1006.7 hPa NNE 19 km/h 25.7 km/h 90 % 0 mm
04:15 -3.4 °C -4.8 °C 1006.7 hPa North 17.7 km/h 24.1 km/h 90 % 0 mm
04:16 -3.4 °C -4.8 °C 1006.3 hPa NE 12.7 km/h 22.2 km/h 90 % 0 mm
04:21 -3.4 °C -4.7 °C 1006.3 hPa NNE 16.3 km/h 20.4 km/h 91 % 0 mm
04:26 -3.5 °C -4.9 °C 1006 hPa NNE 15.9 km/h 24.1 km/h 90 % 0 mm
04:30 -3.6 °C -4.8 °C 1006 hPa NNE 15.8 km/h 27.8 km/h 91 % 0 mm
04:32 -3.6 °C -4.8 °C 1006 hPa NNE 16.9 km/h 20.9 km/h 91 % 0 mm
04:37 -3.6 °C -4.8 °C 1005.6 hPa NNE 18.2 km/h 29.6 km/h 91 % 0 mm
04:42 -3.6 °C -4.9 °C 1005.3 hPa North 15.3 km/h 20.4 km/h 91 % 0 mm
04:43 -3.6 °C -4.8 °C 1005.3 hPa North 17.5 km/h 22.5 km/h 91 % 0 mm
04:48 -3.6 °C -4.7 °C 1005.3 hPa NNE 15.4 km/h 22.2 km/h 92 % 0 mm
04:52 -3.5 °C -4.6 °C 1005 hPa North 19.2 km/h 27.4 km/h 92 % 0 mm
04:56 -3.5 °C -4.6 °C 1005 hPa NNE 18.2 km/h 27.8 km/h 92 % 0.25 mm
04:57 -3.5 °C -4.6 °C 1005 hPa North 17.2 km/h 27.8 km/h 92 % 0.25 mm
05:02 -3.4 °C -4.6 °C 1004.6 hPa NNE 13.7 km/h 22.2 km/h 92 % 0.25 mm
05:07 -3.4 °C -4.6 °C 1004.6 hPa NNE 17.7 km/h 25.9 km/h 92 % 0.25 mm
05:12 -3.4 °C -4.5 °C 1004.3 hPa NNE 12.9 km/h 25.9 km/h 92 % 0.25 mm
05:17 -3.3 °C -4.4 °C 1004.3 hPa NNE 10.1 km/h 16.1 km/h 92 % 0.25 mm
05:22 -3.3 °C -4.3 °C 1003.9 hPa ENE 9 km/h 20.4 km/h 93 % 0.25 mm
05:27 -3.3 °C -4.3 °C 1003.9 hPa NNW 17.1 km/h 22.2 km/h 93 % 0.51 mm
05:28 -3.3 °C -4.3 °C 1003.6 hPa North 9.7 km/h 13 km/h 93 % 0.51 mm
05:33 -3.3 °C -4.2 °C 1003.6 hPa North 11.4 km/h 22.5 km/h 93 % 0.51 mm
05:34 -3.3 °C -4.2 °C 1003.6 hPa NNE 13.4 km/h 22.2 km/h 93 % 0.51 mm
05:39 -3.3 °C -4.2 °C 1003.6 hPa NNE 11.4 km/h 16.7 km/h 93 % 0.76 mm
05:42 -3.2 °C -4.2 °C 1003.6 hPa North 11.1 km/h 20.4 km/h 93 % 0.76 mm
05:46 -3.2 °C -4.2 °C 1003.3 hPa ENE 13.5 km/h 18.5 km/h 93 % 0.76 mm
05:47 -3.2 °C -4.2 °C 1003.3 hPa NE 13 km/h 22.2 km/h 93 % 0.76 mm
05:52 -3.2 °C -4.1 °C 1002.9 hPa NNE 10.5 km/h 18.5 km/h 93 % 1.02 mm
05:54 -3.2 °C -4.2 °C 1003.3 hPa North 11.7 km/h 20.9 km/h 93 % 1.02 mm
05:59 -3.2 °C -4.2 °C 1002.9 hPa NE 7.4 km/h 22.2 km/h 93 % 0.76 mm
06:04 -3.2 °C -4.1 °C 1002.9 hPa North 9.2 km/h 18.5 km/h 93 % 1.02 mm
06:06 -3.2 °C -4.1 °C 1002.9 hPa North 6.6 km/h 18.5 km/h 93 % 1.02 mm
06:08 -3.2 °C -4.1 °C 1002.3 hPa North 4.8 km/h 5.6 km/h 93 % 1.02 mm
06:13 -3.2 °C -4.1 °C 1001.9 hPa North 14.3 km/h 25.9 km/h 93 % 1.02 mm
06:16 -3.1 °C -4.1 °C 1001.9 hPa NNE 7.9 km/h 13 km/h 93 % 1.27 mm
06:21 -3.1 °C -4.1 °C 1001.6 hPa NNW 13.4 km/h 22.2 km/h 93 % 1.27 mm
06:22 -3.1 °C -4.1 °C 1001.6 hPa NNE 12.7 km/h 22.2 km/h 93 % 1.27 mm
06:27 -3.1 °C -4 °C 1001.2 hPa North 19.2 km/h 29.6 km/h 93 % 1.27 mm
06:30 -3.1 °C -3.9 °C 1000.9 hPa North 18.8 km/h 37 km/h 94 % 1.27 mm
06:35 -3.1 °C -4 °C 1000.9 hPa NNE 16.6 km/h 27.8 km/h 93 % 1.27 mm
06:37 -3.1 °C -4 °C 1000.9 hPa North 18.2 km/h 35.2 km/h 93 % 1.27 mm
06:42 -3 °C -3.8 °C 1000.6 hPa NE 17.5 km/h 40.7 km/h 94 % 1.27 mm
06:46 -3 °C -3.8 °C 1000.6 hPa NNE 21.4 km/h 37 km/h 94 % 1.27 mm
06:50 -3.1 °C -3.9 °C 1000.2 hPa NE 26.2 km/h 42.6 km/h 94 % 1.52 mm
06:51 -3.1 °C -3.9 °C 1000.2 hPa NNE 26.9 km/h 40.7 km/h 94 % 1.52 mm
06:56 -3.1 °C -3.9 °C 999.9 hPa North 23.8 km/h 29.6 km/h 94 % 1.27 mm
06:58 -3 °C -3.8 °C 999.9 hPa NE 22.5 km/h 29.6 km/h 94 % 1.27 mm
07:03 -3 °C -3.8 °C 999.9 hPa NNE 25.9 km/h 27.8 km/h 94 % 1.52 mm
07:08 -2.9 °C -3.8 °C 999.9 hPa NNE 28.3 km/h 44.4 km/h 94 % 1.27 mm
07:11 -2.9 °C -3.8 °C 999.9 hPa North 26.9 km/h 37 km/h 94 % 1.27 mm
07:17 -2.9 °C -3.7 °C 999.9 hPa North 22.2 km/h 40.2 km/h 94 % 1.27 mm
07:22 -2.9 °C -3.7 °C 999.5 hPa North 21.2 km/h 40.2 km/h 94 % 1.27 mm
07:27 -2.9 °C -3.8 °C 999.2 hPa NNE 20.8 km/h 48.1 km/h 94 % 1.27 mm
07:30 -2.9 °C -3.8 °C 999.2 hPa North 30.7 km/h 42.6 km/h 94 % 1.27 mm
07:35 -2.9 °C -3.6 °C 998.9 hPa NE 28.3 km/h 40.7 km/h 95 % 1.27 mm
07:36 -2.9 °C -3.6 °C 998.9 hPa NNE 29.3 km/h 41.8 km/h 95 % 1.52 mm
07:47 -2.8 °C -3.4 °C 998.5 hPa NE 24 km/h 38.9 km/h 95 % 1.52 mm
07:48 -2.8 °C -3.4 °C 998.5 hPa North 22.7 km/h 46.7 km/h 95 % 1.52 mm
07:49 -2.8 °C -3.4 °C 990.1 hPa NNE 26.7 km/h 46.3 km/h 95 % 1.52 mm
07:53 -2.8 °C -3.4 °C 998.2 hPa NNW 22.5 km/h 42.6 km/h 95 % 1.52 mm
07:58 -2.8 °C -3.5 °C 998.2 hPa North 20.6 km/h 38.9 km/h 95 % 1.52 mm
07:59 -2.8 °C -3.5 °C 998.2 hPa NW 20.1 km/h 31.5 km/h 95 % 1.52 mm
08:03 -2.8 °C -3.4 °C 997.9 hPa NNE 20.4 km/h 38.9 km/h 95 % 1.52 mm
08:08 -2.8 °C -3.4 °C 997.9 hPa NNW 21.2 km/h 35.4 km/h 95 % 1.52 mm
08:11 -2.8 °C -3.4 °C 997.9 hPa NNE 22.4 km/h 37 km/h 95 % 1.52 mm
08:16 -2.8 °C -3.4 °C 997.9 hPa NNE 25.7 km/h 48.3 km/h 95 % 0 mm
08:20 -2.8 °C -3.4 °C 997.9 hPa NNE 16.6 km/h 35.2 km/h 95 % 1.52 mm
08:24 -2.8 °C -3.4 °C 998.2 hPa NNW 27 km/h 42.6 km/h 95 % 1.78 mm
08:28 -2.8 °C -3.4 °C 998.2 hPa North 26.2 km/h 37 km/h 95 % 1.52 mm
08:34 -2.7 °C -3.3 °C 997.9 hPa NNE 20.6 km/h 42.6 km/h 95 % 1.78 mm
08:36 -2.7 °C -3.3 °C 997.5 hPa NE 27 km/h 35.4 km/h 95 % 1.52 mm
08:41 -2.6 °C -3.3 °C 997.5 hPa NNW 20 km/h 33.3 km/h 95 % 1.78 mm
08:47 -2.6 °C -3.3 °C 997.2 hPa North 22.5 km/h 37 km/h 95 % 1.78 mm
08:52 -2.7 °C -3.2 °C 996.8 hPa North 22 km/h 29.6 km/h 96 % 1.78 mm
08:55 -2.6 °C -3.2 °C 996.8 hPa North 20.1 km/h 42.6 km/h 96 % 1.78 mm
09:01 -2.6 °C -3.2 °C 996.8 hPa NE 20.8 km/h 31.5 km/h 96 % 2.03 mm
09:03 -2.7 °C -3.2 °C 996.5 hPa North 27.2 km/h 42.6 km/h 96 % 2.03 mm
09:08 -2.7 °C -3.3 °C 996.5 hPa NNW 22.4 km/h 38.9 km/h 96 % 2.29 mm
09:09 -2.7 °C -3.3 °C 996.5 hPa NNE 22.4 km/h 37 km/h 96 % 2.29 mm
09:14 -2.8 °C -3.3 °C 996.2 hPa North 18.2 km/h 35.2 km/h 96 % 2.29 mm
09:18 -2.8 °C -3.4 °C 995.5 hPa NNE 21.2 km/h 42.6 km/h 96 % 2.29 mm
09:23 -2.8 °C -3.4 °C 995.5 hPa North 27.5 km/h 40.7 km/h 96 % 2.54 mm
09:24 -2.9 °C -3.4 °C 995.5 hPa North 27.8 km/h 40.7 km/h 96 % 2.54 mm
09:26 -2.9 °C -3.4 °C 995.5 hPa NE 25.6 km/h 42.6 km/h 96 % 2.54 mm
09:30 -2.9 °C -3.4 °C 995.5 hPa NNW 24.1 km/h 38.6 km/h 96 % 2.79 mm
09:35 -3 °C -3.6 °C 995.1 hPa NNE 26.6 km/h 46.7 km/h 96 % 2.79 mm
09:39 -3.1 °C -3.6 °C 995.1 hPa NNE 30.1 km/h 40.2 km/h 96 % 3.05 mm
09:44 -3.2 °C -3.7 °C 994.8 hPa NNW 36.7 km/h 38.9 km/h 96 % 2.79 mm
09:48 -3.2 °C -3.9 °C 986.3 hPa NNE 19 km/h 43.5 km/h 95 % 2.79 mm
09:49 -3.2 °C -3.9 °C 994.5 hPa North 26.6 km/h 42.6 km/h 95 % 2.79 mm
09:53 -3.3 °C -3.8 °C 994.5 hPa NNW 25.9 km/h 48.1 km/h 96 % 2.79 mm
09:58 -3.3 °C -3.9 °C 994.1 hPa North 29.8 km/h 40.7 km/h 96 % 2.79 mm
10:00 -3.4 °C -3.9 °C 994.5 hPa North 24.5 km/h 48.1 km/h 96 % 2.79 mm
10:03 -3.4 °C -3.9 °C 994.5 hPa North 30.6 km/h 42.6 km/h 96 % 2.79 mm
10:08 -3.5 °C -4.1 °C 994.1 hPa NNE 29.3 km/h 42.6 km/h 96 % 2.79 mm
10:13 -3.6 °C -4.2 °C 993.8 hPa NE 28.6 km/h 50 km/h 95 % 2.79 mm
10:19 -3.6 °C -4.2 °C 993.8 hPa North 27 km/h 51.8 km/h 95 % 2.79 mm
10:22 -3.6 °C -4.3 °C 993.8 hPa NNE 24.5 km/h 42.6 km/h 95 % 2.54 mm
10:27 -3.6 °C -4.2 °C 993.8 hPa NNE 28.5 km/h 42.6 km/h 96 % 2.54 mm
10:29 -3.6 °C -4.2 °C 993.8 hPa NNW 24.1 km/h 48.1 km/h 96 % 2.54 mm
10:32 -3.6 °C -4.2 °C 993.8 hPa NNW 30.1 km/h 43.5 km/h 96 % 2.54 mm
10:35 -3.7 °C -4.2 °C 993.8 hPa North 21.6 km/h 40.7 km/h 96 % 2.29 mm
10:40 -3.7 °C -4.2 °C 993.5 hPa NNE 24.8 km/h 48.1 km/h 96 % 2.03 mm
10:45 -3.7 °C -4.2 °C 993.1 hPa NW 20.9 km/h 46.3 km/h 96 % 2.03 mm
10:50 -3.7 °C -4.2 °C 992.4 hPa North 18.3 km/h 31.5 km/h 96 % 1.78 mm
10:52 -3.7 °C -4.2 °C 992.4 hPa NW 23.2 km/h 37 km/h 96 % 2.03 mm
10:53 -3.7 °C -4.2 °C 992.4 hPa North 26.1 km/h 37 km/h 96 % 2.03 mm
10:54 -3.7 °C -4.3 °C 992.8 hPa NNW 21.2 km/h 33.3 km/h 96 % 2.03 mm
10:59 -3.7 °C -4.3 °C 992.4 hPa North 26.1 km/h 51.5 km/h 96 % 1.78 mm
11:00 -3.7 °C -4.3 °C 992.4 hPa North 23.2 km/h 42.6 km/h 96 % 1.78 mm
11:05 -3.7 °C -4.3 °C 992.4 hPa NNW 17.7 km/h 38.9 km/h 96 % 1.78 mm
11:11 -3.7 °C -4.2 °C 992.1 hPa North 23.7 km/h 40.7 km/h 96 % 1.78 mm
11:16 -3.7 °C -4.2 °C 991.4 hPa North 26.1 km/h 40.7 km/h 96 % 1.78 mm
11:18 -3.6 °C -4.2 °C 991.4 hPa NNW 15.9 km/h 33.3 km/h 96 % 1.78 mm
11:20 -3.6 °C -4.2 °C 991.4 hPa NNE 19.5 km/h 44.4 km/h 96 % 1.78 mm
11:22 -3.6 °C -4.2 °C 983 hPa North 17.1 km/h 31.5 km/h 96 % 1.52 mm
11:26 -3.6 °C -4.1 °C 991.1 hPa NNE 25.6 km/h 42.6 km/h 96 % 1.78 mm
11:31 -3.5 °C -4.1 °C 991.1 hPa NNE 16.7 km/h 31.5 km/h 96 % 1.78 mm
11:32 -3.5 °C -4.1 °C 990.7 hPa NNW 20.6 km/h 37 km/h 96 % 1.52 mm
11:33 -3.5 °C -4.1 °C 990.7 hPa North 20.1 km/h 29 km/h 96 % 1.52 mm
11:37 -3.4 °C -4 °C 990.7 hPa NNE 13.8 km/h 24.1 km/h 96 % 1.78 mm
11:38 -3.4 °C -4 °C 990.7 hPa NW 16.1 km/h 46.3 km/h 96 % 1.78 mm
11:42 -3.4 °C -4 °C 990.4 hPa NNE 18.5 km/h 29.6 km/h 96 % 1.52 mm
11:47 -3.4 °C -3.9 °C 990.1 hPa NNW 13.8 km/h 33.3 km/h 96 % 1.78 mm
11:52 -3.4 °C -3.9 °C 989.7 hPa NNE 18.8 km/h 31.5 km/h 96 % 1.52 mm
11:57 -3.4 °C -4 °C 990.1 hPa North 20.6 km/h 40.2 km/h 96 % 1.78 mm
11:58 -3.4 °C -4 °C 981.6 hPa NNW 25.4 km/h 44.4 km/h 96 % 1.78 mm
12:02 -3.5 °C -4.1 °C 990.1 hPa North 23.3 km/h 35.2 km/h 96 % 1.52 mm
12:06 -3.6 °C -4.2 °C 989.7 hPa NNE 26.1 km/h 40.7 km/h 96 % 1.78 mm
12:11 -3.7 °C -4.3 °C 989.7 hPa NNW 17.9 km/h 33.3 km/h 96 % 1.52 mm
12:17 -3.8 °C -4.3 °C 989.1 hPa NE 23.3 km/h 40.7 km/h 96 % 1.52 mm
12:22 -3.8 °C -4.4 °C 988.7 hPa NNW 29 km/h 42.6 km/h 96 % 1.52 mm
12:26 -3.8 °C -4.4 °C 989.1 hPa NNW 20.4 km/h 53.8 km/h 96 % 1.27 mm
12:27 -3.8 °C -4.4 °C 988.7 hPa NNE 23.3 km/h 53.8 km/h 96 % 1.27 mm
12:28 -3.8 °C -4.4 °C 988.7 hPa NNW 27.2 km/h 33.3 km/h 96 % 1.27 mm
12:33 -3.8 °C -4.4 °C 988.4 hPa NNW 22.9 km/h 38.9 km/h 96 % 1.52 mm
12:37 -3.8 °C -4.4 °C 988.4 hPa NNW 17.5 km/h 33.3 km/h 96 % 1.27 mm
12:42 -3.8 °C -4.3 °C 988 hPa NNW 15 km/h 44.4 km/h 96 % 1.27 mm
12:47 -3.8 °C -4.3 °C 988 hPa North 15.8 km/h 31.5 km/h 96 % 1.02 mm
12:52 -3.8 °C -4.3 °C 988 hPa NNE 16.4 km/h 27.8 km/h 96 % 1.27 mm
12:55 -3.8 °C -4.3 °C 988 hPa NW 19.3 km/h 27.4 km/h 96 % 1.02 mm
12:56 -3.8 °C -4.3 °C 987.7 hPa NNW 19.3 km/h 42.6 km/h 96 % 1.02 mm
13:01 -3.8 °C -4.3 °C 987.7 hPa NW 25.3 km/h 32.2 km/h 96 % 1.02 mm
13:02 -3.8 °C -4.3 °C 987.7 hPa NE 22.7 km/h 42.6 km/h 96 % 1.02 mm
13:07 -3.8 °C -4.4 °C 987.7 hPa NNE 17.1 km/h 40.7 km/h 96 % 0.76 mm
13:13 -3.8 °C -4.5 °C 988 hPa NW 26.6 km/h 48.1 km/h 95 % 0.76 mm
13:18 -3.8 °C -4.4 °C 987.7 hPa North 20.3 km/h 38.9 km/h 96 % 0.76 mm
13:19 -3.8 °C -4.4 °C 987.7 hPa NW 18.7 km/h 40.7 km/h 96 % 0.76 mm
13:24 -3.8 °C -4.4 °C 987.7 hPa North 20.9 km/h 35.2 km/h 96 % 0.76 mm
13:25 -3.8 °C -4.4 °C 987.7 hPa NW 18.7 km/h 33.3 km/h 96 % 0.76 mm
13:30 -3.8 °C -4.4 °C 987.7 hPa NW 15.9 km/h 30.6 km/h 96 % 0.76 mm
13:33 -3.8 °C -4.4 °C 987.7 hPa NNW 25.4 km/h 38.9 km/h 96 % 0.51 mm
13:38 -3.9 °C -4.4 °C 987.4 hPa North 15.8 km/h 31.5 km/h 96 % 0.51 mm
13:43 -3.9 °C -4.5 °C 987.4 hPa NW 17.7 km/h 33.3 km/h 96 % 0.51 mm
13:48 -3.9 °C -4.6 °C 987.7 hPa NNW 19 km/h 40.7 km/h 95 % 0.51 mm
13:52 -3.9 °C -4.5 °C 987.7 hPa North 17.9 km/h 27.8 km/h 96 % 0.25 mm
14:01 -4.1 °C -4.6 °C 987.4 hPa NW 19 km/h 37 km/h 96 % 0.25 mm
14:07 -4.1 °C -4.7 °C 987.7 hPa NNW 18 km/h 29 km/h 96 % 0.51 mm
14:12 -4.2 °C -4.7 °C 987.4 hPa NNW 18.8 km/h 37 km/h 96 % 0.51 mm
14:15 -4.2 °C -4.9 °C 987.7 hPa WNW 22.2 km/h 37 km/h 95 % 0.25 mm
14:18 -4.3 °C -4.9 °C 987.7 hPa NW 15.6 km/h 44.4 km/h 95 % 0.25 mm
14:22 -4.3 °C -4.9 °C 987.7 hPa WNW 22.5 km/h 42.6 km/h 95 % 0.25 mm
14:27 -4.3 °C -5 °C 988 hPa NNW 20.3 km/h 46.3 km/h 95 % 0.25 mm
14:28 -4.3 °C -5 °C 988 hPa North 22.5 km/h 42.6 km/h 95 % 0.25 mm
14:29 -4.4 °C -5.1 °C 979.6 hPa North 18.7 km/h 42.6 km/h 95 % 0.25 mm
14:33 -4.4 °C -5.1 °C 988 hPa NNW 21.6 km/h 38.9 km/h 95 % 0.25 mm
14:36 -4.4 °C -5.1 °C 988 hPa NNW 16.1 km/h 48.3 km/h 95 % 0 mm
14:41 -4.4 °C -5.1 °C 988.4 hPa WNW 15.9 km/h 35.2 km/h 95 % 0.25 mm
14:43 -4.4 °C -5.1 °C 988 hPa WNW 22 km/h 33.8 km/h 95 % 0.25 mm
14:49 -4.4 °C -5.1 °C 988.4 hPa WNW 21.9 km/h 35.2 km/h 95 % 0.25 mm
14:54 -4.4 °C -5.1 °C 988.4 hPa NNW 18.7 km/h 38.9 km/h 95 % 0.25 mm
14:59 -4.4 °C -4.9 °C 988.4 hPa NW 15.1 km/h 32.2 km/h 96 % 0.25 mm
15:04 -4.3 °C -4.9 °C 989.1 hPa NW 14.3 km/h 35.4 km/h 96 % 0.25 mm
15:09 -4.3 °C -4.9 °C 988.7 hPa NNW 16.9 km/h 50 km/h 96 % 0 mm
15:14 -4.4 °C -5.1 °C 989.1 hPa NNW 16.6 km/h 27.4 km/h 95 % 0 mm
15:17 -4.4 °C -5.1 °C 989.1 hPa NNW 21.1 km/h 42.6 km/h 95 % 0 mm
15:23 -4.4 °C -5.1 °C 989.1 hPa NNE 18.8 km/h 37 km/h 95 % 0 mm
15:25 -4.4 °C -5.1 °C 989.1 hPa NNW 17.2 km/h 35.2 km/h 95 % 0 mm
15:30 -4.4 °C -5.1 °C 989.4 hPa NW 20.4 km/h 35.2 km/h 95 % 0 mm
15:36 -4.5 °C -5.2 °C 989.4 hPa NNW 14.2 km/h 38.6 km/h 95 % 0 mm
15:43 -4.5 °C -5.2 °C 989.4 hPa NW 20.4 km/h 31.5 km/h 95 % 0 mm
15:49 -4.5 °C -5.2 °C 989.7 hPa NW 19.3 km/h 38.6 km/h 95 % 0 mm
15:54 -4.5 °C -5.2 °C 989.7 hPa NNW 17.7 km/h 31.5 km/h 95 % 0 mm
15:58 -4.5 °C -5.2 °C 989.7 hPa NNW 19.3 km/h 35.2 km/h 95 % 0 mm
16:04 -4.4 °C -5.1 °C 990.1 hPa NW 20.6 km/h 37 km/h 95 % 0 mm
16:06 -4.4 °C -5.1 °C 981.6 hPa North 19.2 km/h 37 km/h 95 % 0 mm
16:16 -4.3 °C -4.9 °C 990.4 hPa NNW 11.1 km/h 40.7 km/h 96 % 0 mm
16:19 -4.3 °C -4.8 °C 981.9 hPa WNW 13.2 km/h 46.3 km/h 96 % 0 mm
16:25 -4.2 °C -4.7 °C 990.4 hPa NW 17.7 km/h 37 km/h 96 % 0 mm
16:27 -4.2 °C -4.7 °C 990.4 hPa NW 16.1 km/h 35.2 km/h 96 % 0 mm
16:32 -4.1 °C -4.7 °C 981.9 hPa NNW 15 km/h 37 km/h 96 % 0 mm
16:34 -4.1 °C -4.6 °C 990.4 hPa North 13 km/h 29.6 km/h 96 % 0 mm
16:36 -4.1 °C -4.6 °C 981.9 hPa WNW 19.8 km/h 35.2 km/h 96 % 0 mm
16:41 -4.1 °C -4.6 °C 990.4 hPa NW 13 km/h 33.3 km/h 96 % 0 mm
16:43 -4.1 °C -4.7 °C 982.3 hPa NW 14.2 km/h 42.6 km/h 95 % 0 mm
16:44 -4.1 °C -4.7 °C 982.3 hPa NNW 18.8 km/h 35.4 km/h 95 % 0 mm
16:46 -4.1 °C -4.6 °C 990.7 hPa NW 21.1 km/h 41.8 km/h 96 % 0 mm
16:47 -4.1 °C -4.7 °C 982.3 hPa NW 24.5 km/h 42.6 km/h 95 % 0 mm
16:48 -4.1 °C -4.7 °C 990.7 hPa WSW 16.3 km/h 33.3 km/h 95 % 0 mm
16:50 -4.1 °C -4.7 °C 990.7 hPa NNW 15.9 km/h 27.8 km/h 95 % 0 mm
16:51 -4.1 °C -4.7 °C 990.7 hPa NW 13 km/h 29.6 km/h 95 % 0 mm
16:52 -4.1 °C -4.7 °C 990.7 hPa North 19.6 km/h 29.6 km/h 95 % 0 mm
16:56 -4.1 °C -4.6 °C 990.7 hPa NW 14.5 km/h 32.2 km/h 96 % 0 mm
17:01 -4 °C -4.6 °C 982.6 hPa WSW 25.4 km/h 27.8 km/h 96 % 0 mm
17:02 -3.9 °C -4.5 °C 990.7 hPa NW 13.4 km/h 24.1 km/h 96 % 0 mm
17:07 -3.9 °C -4.4 °C 991.1 hPa NW 11.7 km/h 31.5 km/h 96 % 0 mm
17:08 -3.9 °C -4.4 °C 991.1 hPa NW 12.9 km/h 32.2 km/h 96 % 0 mm
17:13 -3.8 °C -4.4 °C 991.1 hPa NNW 16.7 km/h 29.6 km/h 96 % 0 mm
17:18 -3.8 °C -4.4 °C 991.1 hPa WNW 13.2 km/h 31.5 km/h 96 % 0 mm
17:23 -3.8 °C -4.4 °C 991.1 hPa WNW 18.5 km/h 31.5 km/h 96 % 0 mm
17:28 -3.8 °C -4.4 °C 991.4 hPa West 19.2 km/h 38.9 km/h 96 % 0 mm
17:29 -3.8 °C -4.4 °C 991.4 hPa West 11.4 km/h 38.9 km/h 96 % 0 mm
17:34 -3.8 °C -4.4 °C 991.4 hPa WNW 16.1 km/h 37 km/h 96 % 0 mm
17:39 -3.8 °C -4.4 °C 991.4 hPa NW 19 km/h 38.9 km/h 96 % 0 mm
17:45 -3.8 °C -4.4 °C 991.8 hPa West 23.3 km/h 40.2 km/h 96 % 0 mm
17:50 -3.9 °C -4.4 °C 991.8 hPa West 22.5 km/h 35.2 km/h 96 % 0 mm
17:55 -3.9 °C -4.4 °C 991.8 hPa WNW 16.9 km/h 42.6 km/h 96 % 0 mm
18:06 -3.9 °C -4.5 °C 992.4 hPa NW 17.1 km/h 29.6 km/h 96 % 0 mm
18:07 -3.9 °C -4.5 °C 992.1 hPa NNW 17.2 km/h 31.5 km/h 96 % 0 mm
18:12 -3.9 °C -4.6 °C 992.1 hPa WNW 15.9 km/h 33.3 km/h 95 % 0 mm
18:15 -3.9 °C -4.6 °C 992.4 hPa West 15.3 km/h 37 km/h 95 % 0 mm
18:22 -4 °C -4.7 °C 992.4 hPa West 17.9 km/h 35.2 km/h 95 % 0 mm
18:27 -4 °C -4.6 °C 992.4 hPa WNW 20.9 km/h 35.2 km/h 96 % 0 mm
18:28 -4 °C -4.6 °C 992.8 hPa NNW 16.4 km/h 35.2 km/h 96 % 0 mm
18:33 -4.1 °C -4.7 °C 992.8 hPa West 12.9 km/h 27.8 km/h 95 % 0 mm
18:39 -4.1 °C -4.8 °C 992.8 hPa WNW 14.6 km/h 27.8 km/h 95 % 0 mm
18:43 -4.1 °C -4.8 °C 993.1 hPa WSW 13 km/h 31.5 km/h 95 % 0 mm
18:48 -4.2 °C -4.8 °C 993.1 hPa West 14.2 km/h 35.2 km/h 95 % 0 mm
18:51 -4.2 °C -4.8 °C 993.1 hPa WNW 14.2 km/h 27.4 km/h 95 % 0 mm
18:56 -4.2 °C -4.8 °C 993.5 hPa West 21.6 km/h 35.2 km/h 95 % 0 mm
19:02 -4.2 °C -4.9 °C 993.5 hPa SW 21.2 km/h 37 km/h 95 % 0 mm
19:04 -4.2 °C -4.9 °C 993.5 hPa West 15.1 km/h 29 km/h 95 % 0 mm
19:10 -4.3 °C -4.9 °C 993.5 hPa West 13.7 km/h 29.6 km/h 95 % 0 mm
19:15 -4.3 °C -4.9 °C 993.8 hPa NW 18.2 km/h 33.3 km/h 95 % 0 mm
19:20 -4.3 °C -4.9 °C 993.8 hPa WNW 17.5 km/h 35.2 km/h 95 % 0 mm
19:25 -4.3 °C -5 °C 993.8 hPa WSW 17.1 km/h 25.9 km/h 95 % 0 mm
19:30 -4.3 °C -5 °C 994.1 hPa NW 19.8 km/h 25.9 km/h 95 % 0 mm
19:35 -4.3 °C -5 °C 994.5 hPa NW 17.7 km/h 29.6 km/h 95 % 0 mm
19:40 -4.3 °C -5 °C 994.1 hPa West 9.8 km/h 19.3 km/h 95 % 0 mm
19:45 -4.3 °C -5 °C 994.1 hPa NW 8.9 km/h 22.2 km/h 95 % 0 mm
19:50 -4.3 °C -5 °C 994.5 hPa WSW 20.1 km/h 35.2 km/h 95 % 0 mm
19:55 -4.3 °C -5 °C 994.8 hPa WNW 21.2 km/h 31.5 km/h 95 % 0 mm
19:57 -4.3 °C -5 °C 994.8 hPa WNW 18.8 km/h 27.4 km/h 95 % 0 mm
20:02 -4.4 °C -5.1 °C 995.1 hPa WNW 12.4 km/h 29.6 km/h 95 % 0 mm
20:07 -4.4 °C -5.1 °C 995.1 hPa NNW 11.1 km/h 27.8 km/h 95 % 0 mm
20:11 -4.4 °C -5.1 °C 995.1 hPa WNW 22.5 km/h 37 km/h 95 % 0 mm
20:16 -4.4 °C -5.1 °C 995.1 hPa WNW 25.1 km/h 42.6 km/h 95 % 0 mm
20:20 -4.4 °C -5.3 °C 995.5 hPa NW 16.3 km/h 31.5 km/h 94 % 0 mm
20:23 -4.5 °C -5.3 °C 995.5 hPa WSW 23.5 km/h 31.5 km/h 94 % 0 mm
20:29 -4.5 °C -5.3 °C 995.5 hPa West 15.6 km/h 25.9 km/h 94 % 0 mm
20:34 -4.6 °C -5.4 °C 995.5 hPa North 20.6 km/h 46.3 km/h 94 % 0 mm
20:35 -4.6 °C -5.4 °C 995.8 hPa SW 17.9 km/h 33.8 km/h 94 % 0 mm
20:41 -4.6 °C -5.4 °C 995.8 hPa WNW 22.5 km/h 46.7 km/h 94 % 0 mm
20:42 -4.6 °C -5.4 °C 995.8 hPa NW 18.3 km/h 25.9 km/h 94 % 0 mm
20:48 -4.7 °C -5.5 °C 995.8 hPa North 15.6 km/h 27.8 km/h 94 % 0 mm
20:50 -4.7 °C -5.5 °C 995.8 hPa WNW 11.7 km/h 27.8 km/h 94 % 0 mm
20:55 -4.7 °C -5.5 °C 996.2 hPa West 18.5 km/h 33.3 km/h 94 % 0 mm
21:01 -4.7 °C -5.6 °C 996.2 hPa NW 14.5 km/h 27.8 km/h 94 % 0 mm
21:04 -4.7 °C -5.5 °C 996.2 hPa West 15.9 km/h 29.6 km/h 94 % 0 mm
21:10 -4.7 °C -5.6 °C 996.2 hPa West 19.3 km/h 33.3 km/h 94 % 0 mm
21:12 -4.8 °C -5.6 °C 996.5 hPa WNW 13.8 km/h 22.5 km/h 94 % 0 mm
21:17 -4.9 °C -5.8 °C 996.5 hPa WNW 18 km/h 33.8 km/h 93 % 0 mm
21:20 -4.9 °C -5.8 °C 996.5 hPa NW 15.3 km/h 30.6 km/h 94 % 0 mm
21:25 -5.1 °C -6 °C 996.8 hPa West 13.4 km/h 25.9 km/h 93 % 0 mm
21:28 -5.1 °C -6.1 °C 996.8 hPa WSW 16.7 km/h 29.6 km/h 93 % 0 mm
21:33 -5.2 °C -6.2 °C 997.2 hPa WNW 16.6 km/h 29.6 km/h 93 % 0 mm
21:38 -5.3 °C -6.2 °C 997.2 hPa WNW 14.5 km/h 18.5 km/h 93 % 0 mm
21:39 -5.3 °C -6.2 °C 997.2 hPa WSW 13.7 km/h 31.5 km/h 93 % 0 mm
21:44 -5.4 °C -6.3 °C 997.2 hPa West 11.4 km/h 17.7 km/h 93 % 0 mm
21:49 -5.4 °C -6.4 °C 997.5 hPa West 15.4 km/h 25.7 km/h 93 % 0 mm
21:54 -5.6 °C -6.5 °C 997.5 hPa WSW 19.5 km/h 31.5 km/h 93 % 0 mm
21:59 -5.7 °C -6.6 °C 997.5 hPa WNW 10.1 km/h 22.2 km/h 93 % 0 mm
22:00 -5.6 °C -6.6 °C 997.5 hPa West 9.8 km/h 22.2 km/h 93 % 0 mm
22:05 -5.7 °C -6.7 °C 997.5 hPa WNW 17.7 km/h 31.5 km/h 93 % 0 mm
22:07 -5.7 °C -6.7 °C 997.5 hPa WNW 20.8 km/h 31.5 km/h 93 % 0 mm
22:12 -5.8 °C -6.8 °C 997.5 hPa SW 16.4 km/h 27.8 km/h 93 % 0 mm
22:14 -5.8 °C -6.8 °C 997.5 hPa NNW 19.5 km/h 31.5 km/h 93 % 0 mm
22:18 -5.9 °C -6.8 °C 997.5 hPa West 11.6 km/h 22.2 km/h 93 % 0 mm
22:23 -5.9 °C -6.9 °C 997.5 hPa NW 13.7 km/h 27.4 km/h 93 % 0 mm
22:24 -5.9 °C -6.9 °C 997.9 hPa NW 14.8 km/h 31.5 km/h 93 % 0 mm
22:26 -5.9 °C -6.9 °C 997.9 hPa SW 19.6 km/h 42.6 km/h 93 % 0 mm
22:31 -5.9 °C -6.9 °C 997.9 hPa WNW 8.2 km/h 20.9 km/h 93 % 0 mm
22:33 -5.9 °C -6.9 °C 997.9 hPa WNW 19 km/h 29.6 km/h 93 % 0 mm
22:38 -5.9 °C -6.9 °C 997.9 hPa NW 13.5 km/h 33.3 km/h 93 % 0 mm
22:41 -6 °C -6.9 °C 998.2 hPa WNW 15.8 km/h 27.8 km/h 93 % 0 mm
22:46 -5.9 °C -6.9 °C 997.9 hPa West 15.6 km/h 30.6 km/h 93 % 0 mm
22:47 -6 °C -6.9 °C 998.2 hPa WNW 15 km/h 31.5 km/h 93 % 0 mm
22:52 -6 °C -6.9 °C 997.9 hPa NW 17.1 km/h 25.9 km/h 93 % 0 mm
23:02 -6.1 °C -7.1 °C 997.9 hPa West 16.6 km/h 33.3 km/h 93 % 0 mm
23:05 -6.1 °C -7.2 °C 998.2 hPa WNW 19.6 km/h 31.5 km/h 92 % 0 mm
23:10 -6.2 °C -7.3 °C 998.2 hPa WNW 10 km/h 20.4 km/h 92 % 0 mm
23:15 -6.3 °C -7.4 °C 998.2 hPa West 12.4 km/h 33.3 km/h 92 % 0 mm
23:20 -6.3 °C -7.4 °C 998.2 hPa WNW 18.7 km/h 38.9 km/h 92 % 0 mm
23:25 -6.4 °C -7.6 °C 998.2 hPa West 16.1 km/h 33.3 km/h 92 % 0 mm
23:27 -6.4 °C -7.6 °C 998.2 hPa West 21.6 km/h 38.9 km/h 92 % 0 mm
23:32 -6.5 °C -7.6 °C 998.2 hPa West 17.2 km/h 31.5 km/h 92 % 0 mm
23:33 -6.5 °C -7.6 °C 998.5 hPa WNW 19.3 km/h 35.2 km/h 92 % 0 mm
23:38 -6.6 °C -7.7 °C 998.5 hPa NW 18 km/h 35.2 km/h 92 % 0 mm
23:42 -6.6 °C -7.7 °C 998.5 hPa West 16.4 km/h 30.6 km/h 92 % 0 mm
23:47 -6.7 °C -7.7 °C 998.5 hPa NNW 15.9 km/h 27.8 km/h 92 % 0 mm
23:52 -6.7 °C -7.8 °C 998.5 hPa West 20.6 km/h 35.2 km/h 92 % 0 mm
Crab Meadow Weather
Compliments of Weather Underground - 3.5 mb

Script developed by  Jim McMurry - jmcmurry@mwt.net Adapted for the template by  Wim van der Kuil - Leuven-Template.eu

Astronomy: Venus rotates east to west.